Miscellaneous Local Product
Issued by NWS Hastings, NE

Home | Current Version | Previous Version | Graphics & Text | Print | Product List | Glossary On
Versions: 1 2 3 4 5 6 7 8 9 10 11 12 13 14 15 16 17 18 19 20 21 22 23 24 25 26 27 28 29 30 31 32 33 34 35 36 37 38 39 40 41 42 43 44 45 46 47 48 49 50
749
AXUS43 KGID 070402
MISGRI

GID CWA HOURLY WEATHER ROUNDUP
NATIONAL WEATHER SERVICE HASTINGS NE
1000 PM CST SAT FEB 06 2016

NOTE: "FAIR" INDICATES FEW OR NO CLOUDS BELOW 12,000 FEET WITH NO
SIGNIFICANT WEATHER AND/OR OBSTRUCTIONS TO VISIBILITY.

...SOUTH CENTRAL NEBRASKA...

CITY           SKY/WX    TMP DP  RH WIND       PRES   REMARKS
GRAND ISLAND   CLOUDY    34  26  72 W17       29.94F WCI  23
HASTINGS       CLOUDY    35  26  69 SW12      29.95F WCI  27
ORD            CLOUDY    36  28  73 NW13      29.93R WCI  27
YORK           CLOUDY    34  28  80 SW13      29.96F WCI  25
AURORA         CLOUDY    34  28  79 SW15      29.93F WCI  24
LEXINGTON      CLOUDY    36  27  69 W10       29.97S WCI  28
HOLDREGE       CLOUDY    36  26  68 W15       29.97S WCI  27
HEBRON         PTCLDY    35  28  78 SW8       30.00R WCI  28

...NEBRASKA PANHANDLE...

CITY           SKY/WX    TMP DP  RH WIND       PRES   REMARKS
CHADRON        PTCLDY    35  27  72 W13       30.08R WCI  26
ALLIANCE       CLOUDY    33  24  69 MISG      30.04R
SCOTTSBLUFF    CLOUDY    38  25  59 NW23      30.09R WCI  27
SIDNEY         CLOUDY    38  26  62 NW17      30.08R WCI  28

...WESTERN AND NORTH CENTRAL NEBRASKA...

CITY           SKY/WX    TMP DP  RH WIND       PRES   REMARKS
VALENTINE      CLOUDY    39  27  62 W10       29.97R WCI  32
AINSWORTH      CLOUDY    37  29  74 NW7       29.96R WCI  31
ONEILL         CLOUDY    39  29  67 W10       29.90R WCI  32
BROKEN BOW     CLOUDY    36  28  73 W13       29.95R WCI  27
IMPERIAL       CLOUDY    34  23  64 NW12      30.06R WCI  25
NORTH PLATTE   CLOUDY    32  24  72 NW8       30.00R WCI  25
MCCOOK         CLOUDY    36  25  64 W13       30.03R WCI  27

...EASTERN NEBRASKA...

CITY           SKY/WX    TMP DP  RH WIND       PRES   REMARKS
NORFOLK        CLOUDY    31  25  78 SW9       29.88F WCI  23
SO SIOUX CITY  CLOUDY    33  25  72 S10       29.89F WCI  25
TEKAMAH        CLOUDY    34  26  72 SW23      29.89F WCI  22
COLUMBUS       CLOUDY    34  21  60 SW12      29.92S WCI  25
ALBION         CLOUDY    34  27  75 W6        29.90F WCI  29
OMAHA EPPLEY   CLOUDY    38  26  62 S10       29.95F WCI  31
OFFUTT AFB     CLOUDY    36  28  72 SE5       29.95F WCI  32
MILLARD        CLOUDY    38  27  64 SW9       29.95F WCI  32
LINCOLN        CLOUDY    37  27  67 SW12      29.98F WCI  29
NEBRASKA CITY  PTCLDY    36  29  75 SW14      29.98F WCI  27
BEATRICE       CLOUDY    37  28  69 SW8       30.00S WCI  31
FALLS CITY     CLOUDY    38  27  64 S12       30.02F WCI  30

...NORTHERN KANSAS...

CITY           SKY/WX    TMP DP  RH WIND       PRES   REMARKS
GOODLAND       CLOUDY    34  22  61 SW16      30.04F WCI  24
HILL CITY      CLOUDY    38  26  62 W8        30.04S WCI  32
NORTON         CLEAR     36  25  64 SW13      30.01  WCI  27
PHILLIPSBURG   CLOUDY    37  28  70 CALM      30.01F
BELOIT         CLEAR     36  27  69 S7        30.02F WCI  30
HAYS           CLOUDY    36  19  51 SW15      30.05S WCI  26
RUSSELL        CLEAR     39  25  57 SW16      30.04S WCI  30
CONCORDIA      CLEAR     40  24  53 SW17      30.01F WCI  31
SALINA         PTCLDY    42  24  49 S17       30.07S
TOPEKA         CLOUDY    41  26  55 S9        30.08F



USA.gov is the U.S. government's official web portal to all federal, state and local government web resources and services.